Regional Weather Roundup
Issued by NWS New Orleans/Baton Rouge, LA

Home | Current Version | Previous Version | Text Only | Print | Product List | Glossary On
Versions: 1 2 3 4 5 6 7 8 9 10 11 12 13 14 15 16 17 18 19 20 21 22 23 24 25 26 27 28 29 30 31 32 33 34 35 36 37 38 39 40 41 42 43 44 45 46 47 48 49 50
653
ASUS44 KLIX 192310
RWRLIX
NEW ORLEANS REGIONAL WEATHER ROUNDUP
NATIONAL WEATHER SERVICE NEW ORLEANS LA
600 PM CDT FRI SEP 19 2014

NOTE: "FAIR" INDICATES FEW OR NO CLOUDS BELOW 12,000 FEET WITH NO
      SIGNIFICANT WEATHER AND/OR OBSTRUCTIONS TO VISIBILITY.
      SKY/WX - SKY CONDITION AND SIGNIFICANT WEATHER.
      TMP - AIR TEMPERATURE.     DP    - DEWPOINT TEMPERATURE.
      RH  - RELATIVE HUMIDITY.   PRES  - PRESSURE.
      HI  - HEAT INDEX.          WCI   - WIND CHILL INDEX.

*  THESE STATIONS ARE NOT NWS OR FAA STATIONS AND ARE NOT UNDER
   NWS QUALITY CONTROL.

LAZ038-040-048-061>063-065>067-069-200000-
SOUTHEAST LOUISIANA

CITY           SKY/WX    TMP DP  RH WIND       PRES   REMARKS
N.O. AUDUBON     N/A     84  73  69 MISG        N/A
N.O. INTL ARPT PTSUNNY   83  68  60 E15       29.92S
N.O. LAKEFRONT MOSUNNY   83  68  60 E13       29.92S
N.O. DOWNTOWN* MOCLDY    84  68  58 SE8       29.93R
SLIDELL        SUNNY     84  68  58 E7        29.93R
BATON ROUGE    LGT RAIN  78  73  84 SE7       29.93R
BOOTHVILLE     CLOUDY    82  69  64 E14       29.91F
BELLE CHASSE   PTSUNNY   82  71  69 E10       29.91S
BOGALUSA*        N/A     84  71  65 E3        29.95S
GALLIANO*      NOT AVBL
NEW ROADS*       N/A     85  70  59 E5        29.92R
GONZALES*        N/A     84  70  61 E7        29.92R
HAMMOND*       MOSUNNY   81  72  74 CALM      29.95R
HOUMA*         PTSUNNY   81  59  47 E7        29.92R
PORT FOURCHON* MOCLDY    81  72  74 E14G21    29.94R

$$

MSZ070-080>082-200000-
SOUTHERN MISSISSIPPI

CITY           SKY/WX    TMP DP  RH WIND       PRES   REMARKS
MCCOMB         SUNNY     82  68  62 SE6       29.94S
GULFPORT       SUNNY     83  68  60 SE14      29.93S
BILOXI         SUNNY     83  68  60 SE10      29.93S
PASCAGOULA     SUNNY     82  69  64 SE6       29.94S
STENNIS ARPT*  SUNNY     82  68  61 SE7       29.94R

$$

COASTAL OBSERVATIONS
LAKE AND NEARSHORE STATIONS

STATION/POSITION TIME  TEMP    WIND        PRES    WAVE
                       AIR SEA DIR/SP/G            HT/PER
                 (UTC) (F)     (DEG/KT/KT) (MB)    (FT/S)
PASCAGOULA       2300   82     130/ 11/ 15 1013.4
WAVELAND YACHT   2300   81     130/ 12/ 15 1012.9
GRAND ISLE       2300   81 84   90/ 14/ 21 1013.2
SOUTHWEST PASS   2300   82 90   90/ 21/ 24 1012.8
NEW CANAL        2300   83 82   60/  1/  5 1013.6
SHELL BEACH      2300   81 80   90/ 13/ 16 1013.0

OFFSHORE STATIONS

STATION/POSITION TIME  TEMP    WIND        PRES    WAVE
                       AIR SEA DIR/SP/G            HT/PER
                 (UTC) (F)     (DEG/KT/KT) (MB)    (FT/S)
64 S DAUPHIN ISL 2249   81 84   90/ 21/ 25 1012.9    6/ 7

$$




USA.gov is the U.S. government's official web portal to all federal, state and local government web resources and services.